Погода в Больших Кусты

Россия / Пермский край     56°35′59″N   55°00′48″E
темп.,
°C
ветер,
м/с
пор.,
м/с
влажн.,
%
обл.,
%
осадки,
мм/ч
давл.,
гПа
погр.,
м
21 июня, пн
пн2123:00+14ссв336526 0.0 102122
02:00+12св22590 0.0 102214
05:00+12в225992 0.0 102428
08:00+15вюв335917 0.0 1023227
11:00+19ююв335264 0.0 1023589
14:00+20юз3457100 0.3 1023799
17:00+21ююз455699 0.4 1022774
20:00+20юз378033 0.6 1021350
22 июня, вт
вт2223:00+15ю119096 0.7 102011
02:00+15зюз11945 0.6 102010
05:00+16юз229385 0.7 101918
08:00+20з358884 1.8 1019241
11:00+26зсз35645 1.8 1019681
14:00+30ссз484420 0.0 10182699
17:00+28с245997 0.0 1017244
20:00+24юз237179 0.0 101752
23 июня, ср
ср2323:00+21зсз357412 0.0 101877
02:00+20зсз227830 0.0 101829
05:00+19сз38854 0.0 1017150
08:00+21с238251 1.6 1018233
11:00+24всв226928 1.6 1018684
14:00+26вюв3262100 0.0 10181161
17:00+24в787017 0.7 1017867
20:00+19вюв3691100 2.5 1018244
24 июня, чт
чт2423:00+16вюв339498 2.5 101954
02:00+15вюв11935 0.0 101911
05:00+15св119312 0.0 101811
08:00+18вюв118481 0.0 1018219
11:00+23с126899 0.0 1018701
14:00+26зюз125797 0.0 10171114
17:00+27юз23535 0.0 10171272
20:00+25ю36756 0.0 1015197
25 июня, пт
пт2523:00+20юз369386 0.7 101598
02:00+19юз3697100 1.9 1014121
05:00+18з379723 3.9 1013160
08:00+21з33895 0.2 1013274
11:00+25зсз23725 0.2 1012700
14:00+29сз345722 0.0 10111441
17:00+29с56573 0.0 10111569
20:00+27ссз236842 0.0 101082